Time,TemperatureF,DewpointF,PressureIn,WindDirection,WindDirectionDegrees,WindSpeedMPH,WindSpeedGustMPH,Humidity,HourlyPrecipIn,Conditions,Clouds,dailyrainin,SoftwareType,DateUTC
2013-03-19 00:00:00,29.3,23.9,30.25,SE,146,1.0,10.0,80,0.00,,---,0.00,VWS V13.00,2013-03-19 04:00:00,
2013-03-19 00:01:00,29.3,23.9,30.26,SSE,149,1.0,10.0,80,0.00,,---,0.00,VWS V13.00,2013-03-19 04:01:00,
2013-03-19 00:06:00,29.2,24.1,30.25,SSE,149,1.0,10.0,81,0.00,,---,0.00,VWS V13.00,2013-03-19 04:06:00,
2013-03-19 00:11:00,28.9,24.4,30.24,SSE,149,2.0,4.0,83,0.00,,---,0.00,VWS V13.00,2013-03-19 04:11:00,
2013-03-19 00:17:00,28.7,24.5,30.24,SSE,150,3.0,5.0,84,0.00,,---,0.00,VWS V13.00,2013-03-19 04:17:00,
2013-03-19 00:22:00,28.4,24.8,30.24,SSE,153,2.0,5.0,86,0.00,,---,0.00,VWS V13.00,2013-03-19 04:22:00,
2013-03-19 00:27:00,28.3,24.9,30.23,SSE,152,0.0,5.0,87,0.00,,---,0.00,VWS V13.00,2013-03-19 04:27:00,
2013-03-19 00:32:00,28.1,25.0,30.23,SSE,152,0.0,5.0,88,0.00,,---,0.00,VWS V13.00,2013-03-19 04:32:00,
2013-03-19 00:37:00,28.1,25.3,30.23,SSE,153,2.0,5.0,89,0.00,,---,0.00,VWS V13.00,2013-03-19 04:37:00,
2013-03-19 00:42:00,28.0,25.2,30.22,SSE,149,4.0,4.0,89,0.00,,---,0.00,VWS V13.00,2013-03-19 04:42:00,
2013-03-19 00:47:00,27.9,25.4,30.22,SSE,149,2.0,4.0,90,0.00,,---,0.00,VWS V13.00,2013-03-19 04:47:00,
2013-03-19 00:52:00,27.8,25.2,30.21,SSE,149,0.0,4.0,90,0.00,,---,0.00,VWS V13.00,2013-03-19 04:52:00,
2013-03-19 00:57:00,27.8,25.5,30.21,SSE,149,1.0,5.0,91,0.00,,---,0.00,VWS V13.00,2013-03-19 04:57:00,
2013-03-19 01:02:00,27.7,25.4,30.21,SSE,149,0.0,5.0,91,0.00,,---,0.00,VWS V13.00,2013-03-19 05:02:00,
2013-03-19 01:07:00,27.6,25.3,30.21,SSE,149,1.0,5.0,91,0.00,,---,0.00,VWS V13.00,2013-03-19 05:07:00,
2013-03-19 01:12:00,27.6,25.6,30.20,SSE,149,0.0,3.0,92,0.00,,---,0.00,VWS V13.00,2013-03-19 05:12:00,
2013-03-19 01:17:00,27.6,25.6,30.20,SSE,150,0.0,3.0,92,0.00,,---,0.00,VWS V13.00,2013-03-19 05:17:00,
2013-03-19 01:22:00,27.6,25.6,30.20,SSE,150,0.0,3.0,92,0.00,,---,0.00,VWS V13.00,2013-03-19 05:22:00,
2013-03-19 01:27:00,27.5,25.5,30.19,SSE,149,0.0,3.0,92,0.00,,---,0.00,VWS V13.00,2013-03-19 05:27:00,
2013-03-19 01:32:00,27.5,25.5,30.19,SSE,148,2.0,4.0,92,0.00,,---,0.00,VWS V13.00,2013-03-19 05:32:00,
2013-03-19 01:37:00,27.4,25.6,30.18,SSE,148,0.0,1.0,93,0.00,,---,0.00,VWS V13.00,2013-03-19 05:37:00,
2013-03-19 01:42:00,27.4,25.6,30.18,SSE,148,1.0,2.0,93,0.00,,---,0.00,VWS V13.00,2013-03-19 05:42:00,
2013-03-19 01:47:00,27.4,25.6,30.18,SSE,148,0.0,3.0,93,0.00,,---,0.00,VWS V13.00,2013-03-19 05:47:00,
2013-03-19 01:52:00,27.4,25.6,30.18,SSE,148,1.0,3.0,93,0.00,,---,0.00,VWS V13.00,2013-03-19 05:52:00,
2013-03-19 01:57:00,27.4,25.6,30.18,SSE,148,1.0,3.0,93,0.00,,---,0.00,VWS V13.00,2013-03-19 05:57:00,
2013-03-19 02:02:00,27.3,25.5,30.17,SSE,148,0.0,3.0,93,0.00,,---,0.00,VWS V13.00,2013-03-19 06:02:00,
2013-03-19 02:07:00,27.2,25.5,30.17,SSE,148,0.0,1.0,93,0.00,,---,0.00,VWS V13.00,2013-03-19 06:07:00,
2013-03-19 02:12:00,27.2,25.5,30.17,SSE,148,1.0,3.0,93,0.00,,---,0.00,VWS V13.00,2013-03-19 06:12:00,
2013-03-19 02:17:00,27.1,25.4,30.17,SE,146,1.0,4.0,93,0.00,,---,0.00,VWS V13.00,2013-03-19 06:17:00,
2013-03-19 02:22:00,27.1,25.4,30.16,SE,146,0.0,4.0,93,0.00,,---,0.00,VWS V13.00,2013-03-19 06:22:00,
2013-03-19 02:27:00,27.1,25.4,30.15,SSE,147,0.0,4.0,93,0.00,,---,0.00,VWS V13.00,2013-03-19 06:27:00,
2013-03-19 02:32:00,27.0,25.2,30.15,SSE,148,0.0,5.0,93,0.00,,---,0.00,VWS V13.00,2013-03-19 06:32:00,
2013-03-19 02:37:00,27.0,25.5,30.15,SSE,148,0.0,1.0,94,0.00,,---,0.00,VWS V13.00,2013-03-19 06:37:00,
2013-03-19 02:42:00,27.0,25.5,30.14,SE,138,2.0,4.0,94,0.00,,---,0.00,VWS V13.00,2013-03-19 06:42:00,
2013-03-19 02:47:00,27.0,25.5,30.14,SE,134,2.0,4.0,94,0.00,,---,0.00,VWS V13.00,2013-03-19 06:47:00,
2013-03-19 02:52:00,27.0,25.5,30.14,SE,133,2.0,4.0,94,0.00,,---,0.00,VWS V13.00,2013-03-19 06:52:00,
2013-03-19 02:57:00,27.0,25.5,30.13,SE,134,1.0,4.0,94,0.00,,---,0.00,VWS V13.00,2013-03-19 06:57:00,
2013-03-19 03:02:00,27.0,25.5,30.13,ESE,113,0.0,4.0,94,0.00,,---,0.00,VWS V13.00,2013-03-19 07:02:00,
2013-03-19 03:07:00,27.0,25.5,30.13,East,88,2.0,2.0,94,0.00,,---,0.00,VWS V13.00,2013-03-19 07:07:00,
2013-03-19 03:12:00,27.0,25.5,30.13,East,87,0.0,3.0,94,0.00,,---,0.00,VWS V13.00,2013-03-19 07:12:00,
2013-03-19 03:17:00,27.0,25.5,30.13,East,95,1.0,4.0,94,0.00,,---,0.00,VWS V13.00,2013-03-19 07:17:00,
2013-03-19 03:22:00,27.0,25.5,30.13,East,96,0.0,4.0,94,0.00,,---,0.00,VWS V13.00,2013-03-19 07:22:00,
2013-03-19 03:27:00,27.1,25.6,30.13,East,96,1.0,4.0,94,0.00,,---,0.00,VWS V13.00,2013-03-19 07:27:00,
2013-03-19 03:32:00,27.1,25.6,30.13,East,98,0.0,4.0,94,0.00,,---,0.00,VWS V13.00,2013-03-19 07:32:00,
2013-03-19 03:37:00,27.1,25.6,30.13,East,98,0.0,1.0,94,0.00,,---,0.00,VWS V13.00,2013-03-19 07:37:00,
2013-03-19 03:42:00,27.1,25.6,30.13,East,98,0.0,2.0,94,0.00,,---,0.00,VWS V13.00,2013-03-19 07:42:00,
2013-03-19 03:47:00,27.1,25.6,30.12,East,99,0.0,2.0,94,0.00,,---,0.00,VWS V13.00,2013-03-19 07:47:00,
2013-03-19 03:52:00,27.1,25.6,30.12,East,99,0.0,5.0,94,0.00,,---,0.00,VWS V13.00,2013-03-19 07:52:00,
2013-03-19 03:57:00,27.1,25.9,30.12,East,99,0.0,5.0,95,0.00,,---,0.00,VWS V13.00,2013-03-19 07:57:00,
2013-03-19 04:02:00,27.2,25.7,30.12,ESE,103,1.0,5.0,94,0.00,,---,0.00,VWS V13.00,2013-03-19 08:02:00,
2013-03-19 04:07:00,27.2,25.7,30.11,East,98,1.0,2.0,94,0.00,,---,0.00,VWS V13.00,2013-03-19 08:07:00,
2013-03-19 04:12:00,27.2,25.7,30.12,East,97,0.0,3.0,94,0.00,,---,0.00,VWS V13.00,2013-03-19 08:12:00,
2013-03-19 04:17:00,27.3,26.1,30.12,East,98,1.0,3.0,95,0.00,,---,0.00,VWS V13.00,2013-03-19 08:17:00,
2013-03-19 04:22:00,27.4,26.2,30.12,East,98,0.0,3.0,95,0.00,,---,0.00,VWS V13.00,2013-03-19 08:22:00,
2013-03-19 04:27:00,27.4,26.2,30.12,East,98,0.0,3.0,95,0.00,,---,0.00,VWS V13.00,2013-03-19 08:27:00,
2013-03-19 04:32:00,27.4,26.2,30.11,East,98,0.0,3.0,95,0.00,,---,0.00,VWS V13.00,2013-03-19 08:32:00,
2013-03-19 04:37:00,27.5,26.3,30.11,East,98,0.0,0.0,95,0.00,,---,0.00,VWS V13.00,2013-03-19 08:37:00,
2013-03-19 04:42:00,27.5,26.3,30.10,East,98,0.0,1.0,95,0.00,,---,0.00,VWS V13.00,2013-03-19 08:42:00,
2013-03-19 04:47:00,27.5,26.3,30.10,East,98,0.0,2.0,95,0.00,,---,0.00,VWS V13.00,2013-03-19 08:47:00,
2013-03-19 04:52:00,27.5,26.3,30.10,East,98,0.0,2.0,95,0.00,,---,0.00,VWS V13.00,2013-03-19 08:52:00,
2013-03-19 04:57:00,27.5,26.3,30.09,East,98,0.0,2.0,95,0.00,,---,0.00,VWS V13.00,2013-03-19 08:57:00,
2013-03-19 05:02:00,27.5,26.3,30.09,East,99,0.0,4.0,95,0.00,,---,0.00,VWS V13.00,2013-03-19 09:02:00,
2013-03-19 05:07:00,27.6,26.4,30.09,East,99,0.0,1.0,95,0.00,,---,0.00,VWS V13.00,2013-03-19 09:07:00,
2013-03-19 05:12:00,27.7,26.5,30.08,East,97,0.0,3.0,95,0.00,,---,0.00,VWS V13.00,2013-03-19 09:12:00,
2013-03-19 05:17:00,27.7,26.5,30.09,East,97,1.0,3.0,95,0.00,,---,0.00,VWS V13.00,2013-03-19 09:17:00,
2013-03-19 05:22:00,27.8,26.6,30.09,SE,132,0.0,4.0,95,0.00,,---,0.00,VWS V13.00,2013-03-19 09:22:00,
2013-03-19 05:27:00,27.8,26.6,30.09,SE,132,1.0,4.0,95,0.00,,---,0.00,VWS V13.00,2013-03-19 09:27:00,
2013-03-19 05:32:00,27.8,26.6,30.09,SE,132,0.0,4.0,95,0.00,,---,0.00,VWS V13.00,2013-03-19 09:32:00,
2013-03-19 05:37:00,27.9,26.7,30.09,SE,132,0.0,1.0,95,0.00,,---,0.00,VWS V13.00,2013-03-19 09:37:00,
2013-03-19 05:42:00,27.9,26.7,30.09,SE,132,0.0,1.0,95,0.00,,---,0.00,VWS V13.00,2013-03-19 09:42:00,
2013-03-19 05:47:00,28.0,26.8,30.09,SE,132,0.0,2.0,95,0.00,,---,0.00,VWS V13.00,2013-03-19 09:47:00,
2013-03-19 05:52:00,28.0,26.8,30.08,SE,130,0.0,2.0,95,0.00,,---,0.00,VWS V13.00,2013-03-19 09:52:00,
2013-03-19 05:57:00,28.1,26.9,30.09,SE,130,0.0,2.0,95,0.00,,---,0.00,VWS V13.00,2013-03-19 09:57:00,
2013-03-19 06:02:00,28.2,27.0,30.09,SE,130,1.0,2.0,95,0.00,,---,0.00,VWS V13.00,2013-03-19 10:02:00,
2013-03-19 06:07:00,28.2,27.0,30.09,SE,129,0.0,1.0,95,0.00,,---,0.00,VWS V13.00,2013-03-19 10:07:00,
2013-03-19 06:12:00,28.2,27.0,30.09,SE,125,0.0,3.0,95,0.00,,---,0.00,VWS V13.00,2013-03-19 10:12:00,
2013-03-19 06:17:00,28.3,27.0,30.08,SE,125,1.0,3.0,95,0.00,,---,0.00,VWS V13.00,2013-03-19 10:17:00,
2013-03-19 06:22:00,28.3,27.0,30.08,SE,127,2.0,3.0,95,0.00,,---,0.00,VWS V13.00,2013-03-19 10:22:00,
2013-03-19 06:27:00,28.4,27.1,30.08,SE,126,1.0,4.0,95,0.00,,---,0.00,VWS V13.00,2013-03-19 10:27:00,
2013-03-19 06:32:00,28.4,27.1,30.08,SE,129,0.0,5.0,95,0.00,,---,0.00,VWS V13.00,2013-03-19 10:32:00,
2013-03-19 06:37:00,28.5,27.2,30.08,South,184,1.0,3.0,95,0.00,,---,0.00,VWS V13.00,2013-03-19 10:37:00,
2013-03-19 06:42:00,28.5,27.2,30.08,SE,145,2.0,3.0,95,0.00,,---,0.00,VWS V13.00,2013-03-19 10:42:00,
2013-03-19 06:47:00,28.6,27.6,30.08,East,82,1.0,4.0,96,0.00,,---,0.00,VWS V13.00,2013-03-19 10:47:00,
2013-03-19 06:52:00,28.6,27.6,30.07,East,83,2.0,4.0,96,0.00,,---,0.00,VWS V13.00,2013-03-19 10:52:00,
2013-03-19 06:57:00,28.7,27.7,30.07,SSE,157,3.0,4.0,96,0.00,,---,0.00,VWS V13.00,2013-03-19 10:57:00,
2013-03-19 07:02:00,28.7,27.7,30.06,ESE,107,1.0,5.0,96,0.00,,---,0.00,VWS V13.00,2013-03-19 11:02:00,
2013-03-19 07:07:00,28.7,27.7,30.06,ESE,105,0.0,2.0,96,0.00,,---,0.00,VWS V13.00,2013-03-19 11:07:00,
2013-03-19 07:12:00,28.7,27.7,30.06,ESE,105,2.0,3.0,96,0.00,,---,0.00,VWS V13.00,2013-03-19 11:12:00,
2013-03-19 07:17:00,28.8,27.8,30.05,ESE,105,1.0,3.0,96,0.00,,---,0.00,VWS V13.00,2013-03-19 11:17:00,
2013-03-19 07:22:00,28.8,27.8,30.05,ESE,105,0.0,3.0,96,0.00,,---,0.00,VWS V13.00,2013-03-19 11:22:00,
2013-03-19 07:27:00,28.8,27.8,30.05,ESE,106,0.0,4.0,96,0.00,,---,0.00,VWS V13.00,2013-03-19 11:27:00,
2013-03-19 07:32:00,28.8,27.8,30.05,ESE,105,1.0,4.0,96,0.00,,---,0.00,VWS V13.00,2013-03-19 11:32:00,
2013-03-19 07:37:00,28.9,27.9,30.05,ESE,105,1.0,2.0,96,0.00,,---,0.00,VWS V13.00,2013-03-19 11:37:00,
2013-03-19 07:43:00,29.0,28.0,30.05,ESE,105,0.0,3.0,96,0.00,,---,0.00,VWS V13.00,2013-03-19 11:43:00,
2013-03-19 07:48:00,29.0,28.0,30.04,ESE,108,0.0,3.0,96,0.00,,---,0.00,VWS V13.00,2013-03-19 11:48:00,
2013-03-19 07:53:00,29.1,28.1,30.04,ESE,108,0.0,3.0,96,0.00,,---,0.00,VWS V13.00,2013-03-19 11:53:00,
2013-03-19 07:58:00,29.2,28.2,30.04,ENE,69,0.0,4.0,96,0.00,,---,0.00,VWS V13.00,2013-03-19 11:58:00,
2013-03-19 08:03:00,29.2,28.2,30.03,ENE,71,1.0,4.0,96,0.00,,---,0.00,VWS V13.00,2013-03-19 12:03:00,
2013-03-19 08:08:00,29.3,28.3,30.03,ENE,71,1.0,2.0,96,0.00,,---,0.00,VWS V13.00,2013-03-19 12:08:00,
2013-03-19 08:13:00,29.4,28.4,30.03,NE,55,0.0,5.0,96,0.00,,---,0.00,VWS V13.00,2013-03-19 12:13:00,
2013-03-19 08:18:00,29.5,28.5,30.02,ENE,57,0.0,5.0,96,0.00,,---,0.00,VWS V13.00,2013-03-19 12:18:00,
2013-03-19 08:23:00,29.6,28.6,30.02,SE,146,0.0,5.0,96,0.00,,---,0.00,VWS V13.00,2013-03-19 12:23:00,
2013-03-19 08:28:00,29.7,28.7,30.02,SSE,148,2.0,5.0,96,0.00,,---,0.00,VWS V13.00,2013-03-19 12:28:00,
2013-03-19 08:33:00,29.7,28.7,30.02,SE,128,0.0,5.0,96,0.00,,---,0.00,VWS V13.00,2013-03-19 12:33:00,
2013-03-19 08:37:00,29.7,28.7,30.01,ESE,110,1.0,2.0,96,0.00,,---,0.00,VWS V13.00,2013-03-19 12:37:00,
2013-03-19 08:43:00,29.8,28.8,30.01,SE,128,4.0,5.0,96,0.00,,---,0.00,VWS V13.00,2013-03-19 12:43:00,
2013-03-19 08:48:00,29.9,28.9,30.01,SE,128,0.0,5.0,96,0.00,,---,0.00,VWS V13.00,2013-03-19 12:48:00,
2013-03-19 08:52:00,30.0,29.0,30.01,SE,137,0.0,5.0,96,0.00,,---,0.00,VWS V13.00,2013-03-19 12:52:00,
2013-03-19 08:57:00,30.1,29.1,30.00,NE,54,2.0,5.0,96,0.00,,---,0.00,VWS V13.00,2013-03-19 12:57:00,
2013-03-19 09:02:00,30.2,29.2,30.00,ENE,75,1.0,5.0,96,0.00,,---,0.00,VWS V13.00,2013-03-19 13:02:00,
2013-03-19 09:07:00,30.3,29.3,30.01,ENE,75,0.0,1.0,96,0.00,,---,0.00,VWS V13.00,2013-03-19 13:07:00,
2013-03-19 09:12:00,30.4,29.4,30.00,ENE,75,0.0,1.0,96,0.00,,---,0.00,VWS V13.00,2013-03-19 13:12:00,
2013-03-19 09:17:00,30.5,29.5,30.01,SE,146,2.0,3.0,96,0.00,,---,0.00,VWS V13.00,2013-03-19 13:17:00,
2013-03-19 09:22:00,30.5,29.5,30.00,East,83,0.0,3.0,96,0.00,,---,0.00,VWS V13.00,2013-03-19 13:22:00,
2013-03-19 09:27:00,30.6,29.6,30.00,ENE,75,0.0,3.0,96,0.00,,---,0.00,VWS V13.00,2013-03-19 13:27:00,
2013-03-19 09:33:00,30.7,29.7,30.00,ENE,67,1.0,3.0,96,0.00,,---,0.00,VWS V13.00,2013-03-19 13:33:00,
2013-03-19 09:38:00,30.8,29.8,29.99,NNE,30,1.0,1.0,96,0.00,,---,0.00,VWS V13.00,2013-03-19 13:38:00,
2013-03-19 09:42:00,30.8,29.8,29.99,NE,49,1.0,4.0,96,0.00,,---,0.00,VWS V13.00,2013-03-19 13:42:00,
2013-03-19 09:48:00,30.9,29.9,29.99,SSE,166,1.0,4.0,96,0.00,,---,0.00,VWS V13.00,2013-03-19 13:48:00,
2013-03-19 09:53:00,30.9,29.9,29.99,SE,145,0.0,4.0,96,0.00,,---,0.00,VWS V13.00,2013-03-19 13:53:00,
2013-03-19 09:58:00,30.9,29.9,29.99,SSE,167,1.0,5.0,96,0.00,,---,0.00,VWS V13.00,2013-03-19 13:58:00,
2013-03-19 10:03:00,31.0,30.0,29.99,SSE,166,0.0,5.0,96,0.00,,---,0.00,VWS V13.00,2013-03-19 14:03:00,
2013-03-19 10:08:00,31.0,30.0,29.98,SE,129,2.0,2.0,96,0.00,,---,0.00,VWS V13.00,2013-03-19 14:08:00,
2013-03-19 10:13:00,31.0,30.0,29.99,East,90,4.0,5.0,96,0.00,,---,0.00,VWS V13.00,2013-03-19 14:13:00,
2013-03-19 10:18:00,31.0,30.0,29.99,ENE,67,1.0,5.0,96,0.00,,---,0.00,VWS V13.00,2013-03-19 14:18:00,
2013-03-19 10:23:00,31.0,30.0,29.98,ENE,61,0.0,5.0,96,0.00,,---,0.00,VWS V13.00,2013-03-19 14:23:00,
2013-03-19 10:28:00,30.9,29.9,29.97,SSE,159,1.0,5.0,96,0.00,,---,0.00,VWS V13.00,2013-03-19 14:28:00,
2013-03-19 10:33:00,30.9,29.9,29.97,SW,221,0.0,5.0,96,0.00,,---,0.00,VWS V13.00,2013-03-19 14:33:00,
2013-03-19 10:38:00,30.9,29.9,29.96,SSE,148,0.0,2.0,96,0.00,,---,0.00,VWS V13.00,2013-03-19 14:38:00,
2013-03-19 10:43:00,30.9,29.9,29.95,ENE,57,2.0,5.0,96,0.00,,---,0.00,VWS V13.00,2013-03-19 14:43:00,
2013-03-19 10:48:00,30.9,29.9,29.95,ESE,115,0.0,5.0,96,0.00,,---,0.00,VWS V13.00,2013-03-19 14:48:00,
2013-03-19 10:53:00,30.9,29.9,29.95,NE,40,0.0,5.0,96,0.00,,---,0.00,VWS V13.00,2013-03-19 14:53:00,
2013-03-19 10:58:00,31.0,30.0,29.95,East,88,3.0,5.0,96,0.00,,---,0.00,VWS V13.00,2013-03-19 14:58:00,
2013-03-19 11:03:00,31.1,30.1,29.95,SSW,201,0.0,5.0,96,0.00,,---,0.00,VWS V13.00,2013-03-19 15:03:00,
2013-03-19 11:08:00,31.2,30.2,29.95,ESE,115,0.0,1.0,96,0.00,,---,0.00,VWS V13.00,2013-03-19 15:08:00,
2013-03-19 11:13:00,31.4,30.4,29.94,East,99,1.0,5.0,96,0.00,,---,0.00,VWS V13.00,2013-03-19 15:13:00,
2013-03-19 11:18:00,31.6,30.6,29.93,ENE,63,2.0,5.0,96,0.00,,---,0.00,VWS V13.00,2013-03-19 15:18:00,
2013-03-19 11:23:00,31.7,30.7,29.93,North,349,1.0,5.0,96,0.00,,---,0.00,VWS V13.00,2013-03-19 15:23:00,
2013-03-19 11:28:00,31.8,30.8,29.93,East,99,0.0,6.0,96,0.00,,---,0.00,VWS V13.00,2013-03-19 15:28:00,
2013-03-19 11:33:00,31.9,30.9,29.92,ESE,115,1.0,6.0,96,0.00,,---,0.00,VWS V13.00,2013-03-19 15:33:00,
2013-03-19 11:38:00,31.9,30.9,29.92,NE,47,0.0,3.0,96,0.00,,---,0.00,VWS V13.00,2013-03-19 15:38:00,
2013-03-19 11:43:00,31.9,30.9,29.93,SE,142,0.0,7.0,96,0.00,,---,0.00,VWS V13.00,2013-03-19 15:43:00,
2013-03-19 11:48:00,32.0,31.0,29.92,ENE,60,0.0,7.0,96,0.00,,---,0.00,VWS V13.00,2013-03-19 15:48:00,
2013-03-19 11:53:00,32.0,31.0,29.92,ENE,68,0.0,7.0,96,0.00,,---,0.00,VWS V13.00,2013-03-19 15:53:00,
2013-03-19 11:58:00,32.0,31.0,29.92,NNE,29,2.0,7.0,96,0.00,,---,0.00,VWS V13.00,2013-03-19 15:58:00,
2013-03-19 12:03:00,32.0,31.0,29.91,NW,311,1.0,7.0,96,0.00,,---,0.00,VWS V13.00,2013-03-19 16:03:00,
2013-03-19 12:08:00,32.0,31.0,29.90,East,95,2.0,4.0,96,0.00,,---,0.00,VWS V13.00,2013-03-19 16:08:00,
2013-03-19 12:13:00,32.1,31.1,29.89,ESE,103,4.0,4.0,96,0.00,,---,0.00,VWS V13.00,2013-03-19 16:13:00,
2013-03-19 12:18:00,32.4,31.4,29.88,SSE,154,4.0,5.0,96,0.00,,---,0.00,VWS V13.00,2013-03-19 16:18:00,
2013-03-19 12:23:00,32.4,31.4,29.88,NNE,22,1.0,6.0,96,0.00,,---,0.00,VWS V13.00,2013-03-19 16:23:00,
2013-03-19 12:28:00,32.4,31.4,29.89,ESE,118,0.0,10.0,96,0.00,,---,0.00,VWS V13.00,2013-03-19 16:28:00,
2013-03-19 12:33:00,32.3,31.3,29.89,SE,133,3.0,10.0,96,0.00,,---,0.00,VWS V13.00,2013-03-19 16:33:00,
2013-03-19 12:38:00,32.3,31.3,29.88,NNE,27,2.0,2.0,96,0.00,,---,0.00,VWS V13.00,2013-03-19 16:38:00,
2013-03-19 12:43:00,32.3,31.3,29.87,ENE,64,1.0,6.0,96,0.00,,---,0.00,VWS V13.00,2013-03-19 16:43:00,
2013-03-19 12:48:00,32.3,31.3,29.87,NE,40,6.0,10.0,96,0.00,,---,0.00,VWS V13.00,2013-03-19 16:48:00,
2013-03-19 12:53:00,32.3,31.3,29.87,North,355,3.0,10.0,96,0.00,,---,0.00,VWS V13.00,2013-03-19 16:53:00,
2013-03-19 12:58:00,32.2,31.2,29.87,WSW,242,5.0,13.0,96,0.00,,---,0.00,VWS V13.00,2013-03-19 16:58:00,
2013-03-19 13:03:00,32.2,30.9,29.87,NE,46,3.0,13.0,95,0.00,,---,0.00,VWS V13.00,2013-03-19 17:03:00,
2013-03-19 13:08:00,32.0,30.7,29.87,North,360,0.0,4.0,95,0.00,,---,0.00,VWS V13.00,2013-03-19 17:08:00,
2013-03-19 13:13:00,32.1,30.8,29.86,ENE,69,1.0,5.0,95,0.00,,---,0.00,VWS V13.00,2013-03-19 17:13:00,
2013-03-19 13:18:00,32.1,30.8,29.86,SE,142,0.0,5.0,95,0.00,,---,0.00,VWS V13.00,2013-03-19 17:18:00,
2013-03-19 13:23:00,32.1,30.8,29.85,SE,144,4.0,5.0,95,0.00,,---,0.00,VWS V13.00,2013-03-19 17:23:00,
2013-03-19 13:28:00,32.0,30.7,29.85,NE,38,6.0,9.0,95,0.00,,---,0.00,VWS V13.00,2013-03-19 17:28:00,
2013-03-19 13:33:00,32.0,30.7,29.84,South,174,0.0,9.0,95,0.00,,---,0.00,VWS V13.00,2013-03-19 17:33:00,
2013-03-19 13:38:00,32.1,30.8,29.84,NE,40,0.0,0.0,95,0.00,,---,0.00,VWS V13.00,2013-03-19 17:38:00,
2013-03-19 13:43:00,32.3,31.0,29.84,WNW,286,0.0,0.0,95,0.00,,---,0.00,VWS V13.00,2013-03-19 17:43:00,
2013-03-19 13:48:00,32.2,30.9,29.84,WNW,300,0.0,0.0,95,0.00,,---,0.00,VWS V13.00,2013-03-19 17:48:00,
2013-03-19 13:53:00,32.1,30.8,29.84,NW,322,0.0,0.0,95,0.00,,---,0.00,VWS V13.00,2013-03-19 17:53:00,
2013-03-19 13:58:00,32.1,30.8,29.84,SSW,200,0.0,0.0,95,0.00,,---,0.00,VWS V13.00,2013-03-19 17:58:00,
2013-03-19 14:03:00,32.0,31.0,29.85,SSW,202,0.0,0.0,96,0.00,,---,0.00,VWS V13.00,2013-03-19 18:03:00,
2013-03-19 14:08:00,32.1,31.1,29.86,SSW,202,0.0,0.0,96,0.00,,---,0.00,VWS V13.00,2013-03-19 18:08:00,
2013-03-19 14:13:00,32.0,31.0,29.87,SSW,202,0.0,0.0,96,0.00,,---,0.00,VWS V13.00,2013-03-19 18:13:00,
2013-03-19 14:18:00,32.1,31.1,29.88,SSW,202,0.0,0.0,96,0.00,,---,0.00,VWS V13.00,2013-03-19 18:18:00,
2013-03-19 14:23:00,32.0,31.0,29.89,SSW,202,0.0,0.0,96,0.00,,---,0.00,VWS V13.00,2013-03-19 18:23:00,
2013-03-19 14:28:00,32.1,31.1,29.89,SSW,202,0.0,0.0,96,0.00,,---,0.00,VWS V13.00,2013-03-19 18:28:00,
2013-03-19 14:33:00,32.2,31.2,29.88,SSW,202,0.0,0.0,96,0.00,,---,0.00,VWS V13.00,2013-03-19 18:33:00,
2013-03-19 14:38:00,32.3,31.3,29.87,SSW,202,0.0,0.0,96,0.00,,---,0.00,VWS V13.00,2013-03-19 18:38:00,
2013-03-19 14:43:00,32.2,31.2,29.87,SSW,202,0.0,0.0,96,0.00,,---,0.00,VWS V13.00,2013-03-19 18:43:00,
2013-03-19 14:48:00,32.2,31.2,29.86,SSW,202,0.0,0.0,96,0.00,,---,0.00,VWS V13.00,2013-03-19 18:48:00,
2013-03-19 14:53:00,32.1,31.1,29.85,SSW,202,0.0,0.0,96,0.00,,---,0.00,VWS V13.00,2013-03-19 18:53:00,
2013-03-19 14:58:00,32.0,31.0,29.85,SSW,202,0.0,0.0,96,0.00,,---,0.00,VWS V13.00,2013-03-19 18:58:00,
2013-03-19 15:03:00,31.9,30.9,29.84,SSW,202,0.0,0.0,96,0.00,,---,0.00,VWS V13.00,2013-03-19 19:03:00,
2013-03-19 15:08:00,31.7,30.7,29.84,SSW,202,0.0,0.0,96,0.00,,---,0.00,VWS V13.00,2013-03-19 19:08:00,
2013-03-19 15:13:00,31.6,30.6,29.84,SSW,202,0.0,0.0,96,0.00,,---,0.00,VWS V13.00,2013-03-19 19:13:00,
2013-03-19 15:18:00,31.6,30.6,29.84,SSW,202,0.0,0.0,96,0.00,,---,0.00,VWS V13.00,2013-03-19 19:18:00,
2013-03-19 15:23:00,31.5,30.5,29.84,SSW,202,0.0,0.0,96,0.00,,---,0.00,VWS V13.00,2013-03-19 19:23:00,
2013-03-19 15:28:00,31.4,30.4,29.83,SSW,202,0.0,0.0,96,0.00,,---,0.00,VWS V13.00,2013-03-19 19:28:00,
2013-03-19 15:33:00,31.3,30.3,29.83,SSW,202,0.0,0.0,96,0.00,,---,0.00,VWS V13.00,2013-03-19 19:33:00,
2013-03-19 15:38:00,31.2,30.2,29.82,SSW,202,0.0,0.0,96,0.00,,---,0.00,VWS V13.00,2013-03-19 19:38:00,
2013-03-19 15:43:00,31.2,30.2,29.81,SSW,202,0.0,0.0,96,0.00,,---,0.00,VWS V13.00,2013-03-19 19:43:00,
2013-03-19 15:48:00,31.1,30.1,29.80,SSW,202,0.0,0.0,96,0.00,,---,0.00,VWS V13.00,2013-03-19 19:48:00,
2013-03-19 15:53:00,31.0,30.0,29.78,SSW,202,0.0,0.0,96,0.00,,---,0.00,VWS V13.00,2013-03-19 19:53:00,
2013-03-19 15:58:00,30.9,29.9,29.76,SSW,202,0.0,0.0,96,0.00,,---,0.00,VWS V13.00,2013-03-19 19:58:00,
2013-03-19 16:03:00,30.8,29.8,29.75,SSW,202,0.0,0.0,96,0.00,,---,0.00,VWS V13.00,2013-03-19 20:03:00,
2013-03-19 16:08:00,30.7,29.7,29.73,SSW,201,0.0,0.0,96,0.00,,---,0.00,VWS V13.00,2013-03-19 20:08:00,
2013-03-19 16:13:00,30.7,29.7,29.75,SSW,200,0.0,0.0,96,0.00,,---,0.00,VWS V13.00,2013-03-19 20:13:00,
2013-03-19 16:18:00,30.7,29.7,29.75,SSW,201,0.0,0.0,96,0.00,,---,0.00,VWS V13.00,2013-03-19 20:18:00,
2013-03-19 16:23:00,30.8,29.8,29.74,SSW,202,0.0,0.0,96,0.00,,---,0.00,VWS V13.00,2013-03-19 20:23:00,
2013-03-19 16:28:00,30.9,30.1,29.74,SSW,202,0.0,0.0,97,0.00,,---,0.00,VWS V13.00,2013-03-19 20:28:00,
2013-03-19 16:33:00,31.0,30.0,29.74,SSW,200,0.0,0.0,96,0.00,,---,0.00,VWS V13.00,2013-03-19 20:33:00,
2013-03-19 16:38:00,31.0,30.0,29.75,SSW,201,0.0,0.0,96,0.00,,---,0.00,VWS V13.00,2013-03-19 20:38:00,
2013-03-19 16:43:00,31.1,30.1,29.74,SSW,201,0.0,0.0,96,0.00,,---,0.00,VWS V13.00,2013-03-19 20:43:00,
2013-03-19 16:48:00,31.1,30.1,29.75,SSW,201,0.0,0.0,96,0.00,,---,0.00,VWS V13.00,2013-03-19 20:48:00,
2013-03-19 16:53:00,31.0,30.0,29.75,SSW,201,0.0,0.0,96,0.00,,---,0.00,VWS V13.00,2013-03-19 20:53:00,
2013-03-19 16:58:00,30.9,29.9,29.74,SSW,202,0.0,0.0,96,0.00,,---,0.00,VWS V13.00,2013-03-19 20:58:00,
2013-03-19 17:03:00,30.8,29.8,29.74,SSW,202,0.0,0.0,96,0.00,,---,0.00,VWS V13.00,2013-03-19 21:03:00,
2013-03-19 17:08:00,30.8,29.8,29.74,SSW,201,0.0,0.0,96,0.00,,---,0.00,VWS V13.00,2013-03-19 21:08:00,
2013-03-19 17:13:00,30.7,29.7,29.74,SSW,201,0.0,0.0,96,0.00,,---,0.00,VWS V13.00,2013-03-19 21:13:00,
2013-03-19 17:18:00,30.6,29.6,29.74,SSW,201,0.0,0.0,96,0.00,,---,0.00,VWS V13.00,2013-03-19 21:18:00,
2013-03-19 17:23:00,30.6,29.6,29.74,SSW,201,0.0,0.0,96,0.00,,---,0.00,VWS V13.00,2013-03-19 21:23:00,
2013-03-19 17:28:00,30.6,29.6,29.75,SSW,200,0.0,0.0,96,0.00,,---,0.00,VWS V13.00,2013-03-19 21:28:00,
2013-03-19 17:33:00,30.6,29.6,29.74,SSW,201,0.0,0.0,96,0.00,,---,0.00,VWS V13.00,2013-03-19 21:33:00,
2013-03-19 17:38:00,30.6,29.6,29.74,SSW,201,0.0,0.0,96,0.00,,---,0.00,VWS V13.00,2013-03-19 21:38:00,
2013-03-19 17:43:00,30.5,29.5,29.74,SSW,200,0.0,0.0,96,0.00,,---,0.00,VWS V13.00,2013-03-19 21:43:00,
2013-03-19 17:48:00,30.3,29.3,29.74,SSW,201,0.0,0.0,96,0.00,,---,0.00,VWS V13.00,2013-03-19 21:48:00,
2013-03-19 17:53:00,30.2,29.2,29.74,SSW,200,0.0,0.0,96,0.00,,---,0.00,VWS V13.00,2013-03-19 21:53:00,
2013-03-19 17:58:00,30.1,29.1,29.74,SSW,200,0.0,0.0,96,0.00,,---,0.00,VWS V13.00,2013-03-19 21:58:00,
2013-03-19 18:03:00,29.9,28.9,29.74,SSW,201,0.0,0.0,96,0.00,,---,0.00,VWS V13.00,2013-03-19 22:03:00,
2013-03-19 18:08:00,29.9,28.9,29.74,SSW,200,0.0,0.0,96,0.00,,---,0.00,VWS V13.00,2013-03-19 22:08:00,
2013-03-19 18:13:00,29.8,28.8,29.73,SSW,201,0.0,0.0,96,0.00,,---,0.00,VWS V13.00,2013-03-19 22:13:00,
2013-03-19 18:18:00,29.7,28.7,29.73,SSW,201,0.0,0.0,96,0.00,,---,0.00,VWS V13.00,2013-03-19 22:18:00,
2013-03-19 18:24:00,29.7,28.7,29.72,SSW,201,0.0,0.0,96,0.00,,---,0.00,VWS V13.00,2013-03-19 22:24:00,
2013-03-19 18:29:00,29.6,28.6,29.73,SSW,201,0.0,0.0,96,0.00,,---,0.00,VWS V13.00,2013-03-19 22:29:00,
2013-03-19 18:34:00,29.6,28.6,29.73,SSW,201,0.0,0.0,96,0.00,,---,0.00,VWS V13.00,2013-03-19 22:34:00,
2013-03-19 18:39:00,29.5,28.5,29.73,SSW,201,0.0,0.0,96,0.00,,---,0.00,VWS V13.00,2013-03-19 22:39:00,
2013-03-19 18:44:00,29.5,28.5,29.73,SSW,201,0.0,0.0,96,0.00,,---,0.00,VWS V13.00,2013-03-19 22:44:00,
2013-03-19 18:49:00,29.4,28.4,29.73,SSW,201,0.0,0.0,96,0.00,,---,0.00,VWS V13.00,2013-03-19 22:49:00,
2013-03-19 18:54:00,29.4,28.1,29.73,SSW,201,0.0,0.0,95,0.00,,---,0.00,VWS V13.00,2013-03-19 22:54:00,
2013-03-19 18:59:00,29.3,28.3,29.73,SSW,200,0.0,0.0,96,0.00,,---,0.00,VWS V13.00,2013-03-19 22:59:00,
2013-03-19 19:04:00,29.2,28.2,29.73,SSW,200,0.0,0.0,96,0.00,,---,0.00,VWS V13.00,2013-03-19 23:04:00,
2013-03-19 19:09:00,29.2,28.0,29.74,SSW,201,0.0,0.0,95,0.00,,---,0.00,VWS V13.00,2013-03-19 23:09:00,
2013-03-19 19:14:00,29.2,28.0,29.74,SSW,200,0.0,0.0,95,0.00,,---,0.00,VWS V13.00,2013-03-19 23:14:00,
2013-03-19 19:19:00,29.1,28.1,29.74,SSW,200,0.0,0.0,96,0.00,,---,0.00,VWS V13.00,2013-03-19 23:19:00,
2013-03-19 19:24:00,29.1,28.1,29.74,SSW,201,0.0,0.0,96,0.00,,---,0.00,VWS V13.00,2013-03-19 23:24:00,
2013-03-19 19:29:00,29.0,27.8,29.73,SSW,200,0.0,0.0,95,0.00,,---,0.00,VWS V13.00,2013-03-19 23:29:00,
2013-03-19 19:34:00,28.9,27.6,29.74,SSW,200,0.0,0.0,95,0.00,,---,0.00,VWS V13.00,2013-03-19 23:34:00,
2013-03-19 19:39:00,28.8,27.5,29.74,SSW,201,0.0,0.0,95,0.00,,---,0.00,VWS V13.00,2013-03-19 23:39:00,
2013-03-19 19:44:00,28.7,27.5,29.73,SSW,201,0.0,0.0,95,0.00,,---,0.00,VWS V13.00,2013-03-19 23:44:00,
2013-03-19 19:49:00,28.6,27.6,29.73,SSW,201,0.0,0.0,96,0.00,,---,0.00,VWS V13.00,2013-03-19 23:49:00,
2013-03-19 19:54:00,28.5,27.5,29.73,SSW,202,0.0,0.0,96,0.00,,---,0.00,VWS V13.00,2013-03-19 23:54:00,
2013-03-19 19:59:00,28.4,27.1,29.74,SSW,201,0.0,0.0,95,0.00,,---,0.00,VWS V13.00,2013-03-19 23:59:00,
2013-03-19 20:04:00,28.2,27.0,29.74,SSW,200,0.0,0.0,95,0.00,,---,0.00,VWS V13.00,2013-03-20 00:04:00,
2013-03-19 20:09:00,28.0,27.0,29.73,SSW,201,0.0,0.0,96,0.00,,---,0.00,VWS V13.00,2013-03-20 00:09:00,
2013-03-19 20:14:00,27.9,26.7,29.73,SSW,200,0.0,0.0,95,0.00,,---,0.00,VWS V13.00,2013-03-20 00:14:00,
2013-03-19 20:19:00,27.9,26.7,29.73,SSW,201,0.0,0.0,95,0.00,,---,0.00,VWS V13.00,2013-03-20 00:19:00,
2013-03-19 20:24:00,27.7,26.5,29.72,SSW,201,0.0,0.0,95,0.00,,---,0.00,VWS V13.00,2013-03-20 00:24:00,
2013-03-19 20:29:00,27.4,26.2,29.72,SSW,201,0.0,0.0,95,0.00,,---,0.00,VWS V13.00,2013-03-20 00:29:00,
2013-03-19 20:34:00,27.3,26.1,29.72,SSW,201,0.0,0.0,95,0.00,,---,0.00,VWS V13.00,2013-03-20 00:34:00,
2013-03-19 20:39:00,27.2,26.0,29.72,SSW,201,0.0,0.0,95,0.00,,---,0.00,VWS V13.00,2013-03-20 00:39:00,
2013-03-19 20:44:00,27.2,26.0,29.72,SSW,201,0.0,0.0,95,0.00,,---,0.00,VWS V13.00,2013-03-20 00:44:00,
2013-03-19 20:49:00,27.1,25.9,29.73,SSW,202,0.0,0.0,95,0.00,,---,0.00,VWS V13.00,2013-03-20 00:49:00,
2013-03-19 20:54:00,27.1,25.9,29.73,SSW,202,0.0,0.0,95,0.00,,---,0.00,VWS V13.00,2013-03-20 00:54:00,
2013-03-19 20:59:00,27.1,25.9,29.74,SSW,202,0.0,0.0,95,0.00,,---,0.00,VWS V13.00,2013-03-20 00:59:00,
2013-03-19 21:04:00,26.9,25.7,29.74,SSW,200,0.0,0.0,95,0.00,,---,0.00,VWS V13.00,2013-03-20 01:04:00,
2013-03-19 21:09:00,26.8,25.6,29.74,SSW,201,0.0,0.0,95,0.00,,---,0.00,VWS V13.00,2013-03-20 01:09:00,
2013-03-19 21:14:00,26.6,25.4,29.74,SSW,201,0.0,0.0,95,0.00,,---,0.00,VWS V13.00,2013-03-20 01:14:00,
2013-03-19 21:19:00,26.5,25.3,29.75,SSW,200,0.0,0.0,95,0.00,,---,0.00,VWS V13.00,2013-03-20 01:19:00,
2013-03-19 21:24:00,26.4,25.2,29.75,SSW,200,0.0,0.0,95,0.00,,---,0.00,VWS V13.00,2013-03-20 01:24:00,
2013-03-19 21:29:00,26.3,25.1,29.75,SSW,202,0.0,0.0,95,0.00,,---,0.00,VWS V13.00,2013-03-20 01:29:00,
2013-03-19 21:34:00,26.1,24.9,29.75,SSW,201,0.0,0.0,95,0.00,,---,0.00,VWS V13.00,2013-03-20 01:34:00,
2013-03-19 21:39:00,25.8,24.6,29.75,SSW,202,0.0,0.0,95,0.00,,---,0.00,VWS V13.00,2013-03-20 01:39:00,
2013-03-19 21:44:00,25.6,24.4,29.76,SSW,201,0.0,0.0,95,0.00,,---,0.00,VWS V13.00,2013-03-20 01:44:00,
2013-03-19 21:49:00,25.3,24.1,29.76,SSW,202,0.0,0.0,95,0.00,,---,0.00,VWS V13.00,2013-03-20 01:49:00,
2013-03-19 21:54:00,25.1,23.9,29.75,SSW,202,0.0,0.0,95,0.00,,---,0.00,VWS V13.00,2013-03-20 01:54:00,
2013-03-19 21:59:00,24.9,23.7,29.75,SSW,202,0.0,0.0,95,0.00,,---,0.00,VWS V13.00,2013-03-20 01:59:00,
2013-03-19 22:04:00,24.8,23.6,29.75,SSW,202,0.0,0.0,95,0.00,,---,0.00,VWS V13.00,2013-03-20 02:04:00,
2013-03-19 22:09:00,24.7,23.5,29.75,SSW,202,0.0,0.0,95,0.00,,---,0.00,VWS V13.00,2013-03-20 02:09:00,
2013-03-19 22:14:00,24.5,23.3,29.75,SSW,201,0.0,0.0,95,0.00,,---,0.00,VWS V13.00,2013-03-20 02:14:00,
2013-03-19 22:19:00,24.5,23.3,29.76,SSW,202,0.0,0.0,95,0.00,,---,0.00,VWS V13.00,2013-03-20 02:19:00,
2013-03-19 22:24:00,24.4,23.2,29.76,SSW,201,0.0,0.0,95,0.00,,---,0.00,VWS V13.00,2013-03-20 02:24:00,
2013-03-19 22:29:00,24.5,23.3,29.76,SSW,201,0.0,0.0,95,0.00,,---,0.00,VWS V13.00,2013-03-20 02:29:00,
2013-03-19 22:34:00,24.5,23.3,29.75,SSW,200,0.0,0.0,95,0.00,,---,0.00,VWS V13.00,2013-03-20 02:34:00,
2013-03-19 22:39:00,24.5,23.3,29.76,SSW,202,0.0,0.0,95,0.00,,---,0.00,VWS V13.00,2013-03-20 02:39:00,
2013-03-19 22:44:00,24.6,23.4,29.75,SSW,201,0.0,0.0,95,0.00,,---,0.00,VWS V13.00,2013-03-20 02:44:00,
2013-03-19 22:49:00,24.6,23.4,29.76,SSW,201,0.0,0.0,95,0.00,,---,0.00,VWS V13.00,2013-03-20 02:49:00,
2013-03-19 22:54:00,24.5,23.3,29.76,SSW,201,0.0,0.0,95,0.00,,---,0.00,VWS V13.00,2013-03-20 02:54:00,
2013-03-19 22:59:00,24.5,23.3,29.76,SSW,202,0.0,0.0,95,0.00,,---,0.00,VWS V13.00,2013-03-20 02:59:00,
2013-03-19 23:04:00,24.5,23.3,29.76,SSW,200,0.0,0.0,95,0.00,,---,0.00,VWS V13.00,2013-03-20 03:04:00,
2013-03-19 23:09:00,24.4,23.2,29.76,SSW,201,0.0,0.0,95,0.00,,---,0.00,VWS V13.00,2013-03-20 03:09:00,
2013-03-19 23:14:00,24.4,23.2,29.76,SSW,202,0.0,0.0,95,0.00,,---,0.00,VWS V13.00,2013-03-20 03:14:00,
2013-03-19 23:19:00,24.3,23.1,29.75,SSW,202,0.0,0.0,95,0.00,,---,0.00,VWS V13.00,2013-03-20 03:19:00,
2013-03-19 23:24:00,24.3,23.1,29.75,SSW,201,0.0,0.0,95,0.00,,---,0.00,VWS V13.00,2013-03-20 03:24:00,
2013-03-19 23:29:00,24.2,23.0,29.75,SSW,201,0.0,0.0,95,0.00,,---,0.00,VWS V13.00,2013-03-20 03:29:00,
2013-03-19 23:34:00,24.1,22.9,29.75,SSW,201,0.0,0.0,95,0.00,,---,0.00,VWS V13.00,2013-03-20 03:34:00,
2013-03-19 23:39:00,24.1,22.9,29.74,SSW,201,0.0,0.0,95,0.00,,---,0.00,VWS V13.00,2013-03-20 03:39:00,
2013-03-19 23:44:00,24.1,22.9,29.74,SSW,202,0.0,0.0,95,0.00,,---,0.00,VWS V13.00,2013-03-20 03:44:00,
2013-03-19 23:49:00,24.0,22.8,29.74,SSW,202,0.0,0.0,95,0.00,,---,0.00,VWS V13.00,2013-03-20 03:49:00,
2013-03-19 23:54:00,23.9,22.7,29.74,SSW,202,0.0,0.0,95,0.00,,---,0.00,VWS V13.00,2013-03-20 03:54:00,
2013-03-19 23:59:00,23.7,22.5,29.74,SSW,202,0.0,0.0,95,0.00,,---,0.00,VWS V13.00,2013-03-20 03:59:00,